Weather History for KAWG - September, 2012

Change the Weather History Date:

Tuesday, September 25, 2012

  Actual Average Record
Temperature  
Mean Temperature 66 °F -  
Max Temperature 80 °F 72 °F 89 °F (1998)
Min Temperature 51 °F 48 °F 35 °F (2003)
Growing Degree Days 16 (Base 50)    
Moisture  
Dew Point 49 °F    
Average Humidity 62    
Maximum Humidity 82    
Minimum Humidity 34    
Precipitation  
Precipitation 0.00 in - - ()
Sea Level Pressure  
Sea Level Pressure 29.85 in    
Wind  
Wind Speed 3 mph (South)    
Max Wind Speed 8 mph    
Max Gust Speed -    
Visibility 10 miles    
Events      
Averages and records for this station are not official NWS values.
T = Trace of Precipitation, MM = Missing Value Source: NWS Daily Summary

Daily Weather History Graph

Daily Weather History Graph

Search for Another Location

Airport or City:

Trip Planner

Search our weather history database for the weather conditions in past years. The results will help you decide how hot, cold, wet, or windy it might be!

Date:

Astronomy

Sep. 25, 2012 Rise Set
Actual Time 6:57 AM CDT 6:57 PM CDT
Civil Twilight 6:30 AM CDT 7:25 PM CDT
Nautical Twilight 5:58 AM CDT 7:57 PM CDT
Astronomical Twilight 5:25 AM CDT 8:30 PM CDT
Moon 4:25 PM CDT (9/25) 2:17 AM CDT (9/25)
Length of Visible Light 12h 55m
Length of Day
12h 00m
Waxing Gibbous, 80% of the Moon is Illuminated
Sep 25
Waxing Gibbous
Sep 29
Full
Oct 8
Last Quarter
Oct 15
New
Oct 21
First Quarter

Hourly Weather History & Observations

Time (CDT) Temp. Dew Point Humidity Pressure Visibility Wind Dir Wind Speed Gust Speed Precip Events Conditions
12:15 AM 55.4 °F 44.6 °F 67% 29.89 in 10.0 mi South 5.8 mph - N/A   Clear
12:35 AM 57.2 °F 44.6 °F 63% 29.88 in 10.0 mi South 5.8 mph - N/A   Clear
12:55 AM 57.2 °F 44.6 °F 63% 29.88 in 10.0 mi South 4.6 mph - N/A   Clear
1:15 AM 57.2 °F 44.6 °F 63% 29.88 in 10.0 mi South 6.9 mph - N/A   Clear
1:35 AM 57.2 °F 46.4 °F 67% 29.88 in 10.0 mi South 4.6 mph - N/A   Clear
1:55 AM 57.2 °F 46.4 °F 67% 29.88 in 10.0 mi Calm Calm - N/A   Clear
2:15 AM 57.2 °F 46.4 °F 67% 29.87 in 10.0 mi Calm Calm - N/A   Clear
2:35 AM 55.4 °F 46.4 °F 72% 29.85 in 10.0 mi Calm Calm - N/A   Clear
2:55 AM 55.4 °F 46.4 °F 72% 29.84 in 10.0 mi Calm Calm - N/A   Clear
3:15 AM 53.6 °F 44.6 °F 72% 29.83 in 10.0 mi Calm Calm - N/A   Clear
3:35 AM 53.6 °F 46.4 °F 77% 29.84 in 10.0 mi South 6.9 mph - N/A   Clear
3:55 AM 55.4 °F 46.4 °F 72% 29.84 in 10.0 mi Calm Calm - N/A   Clear
4:15 AM 53.6 °F 46.4 °F 77% 29.83 in 10.0 mi Calm Calm - N/A   Clear
4:35 AM 53.6 °F 46.4 °F 77% 29.84 in 10.0 mi South 8.1 mph - N/A   Clear
4:55 AM 55.4 °F 46.4 °F 72% 29.83 in 10.0 mi SSE 5.8 mph - N/A   Clear
5:15 AM 53.6 °F 46.4 °F 77% 29.85 in 10.0 mi South 5.8 mph - N/A   Clear
5:35 AM 55.4 °F 46.4 °F 72% 29.87 in 10.0 mi South 8.1 mph - N/A   Clear
5:55 AM 55.4 °F 46.4 °F 72% 29.84 in 10.0 mi South 3.5 mph - N/A   Clear
6:15 AM 53.6 °F 46.4 °F 77% 29.85 in 10.0 mi South 3.5 mph - N/A   Clear
6:35 AM 51.8 °F 46.4 °F 82% 29.84 in 10.0 mi Calm Calm - N/A   Clear
6:55 AM 51.8 °F 46.4 °F 82% 29.85 in 10.0 mi Calm Calm - N/A   Clear
7:15 AM 51.8 °F 46.4 °F 82% 29.86 in 10.0 mi Calm Calm - N/A   Clear
7:35 AM 51.8 °F 46.4 °F 82% 29.86 in 7.0 mi Calm Calm - N/A   Clear
7:55 AM 53.6 °F 48.2 °F 82% 29.87 in 10.0 mi Calm Calm - N/A   Clear
8:15 AM 53.6 °F 48.2 °F 82% 29.86 in 10.0 mi Calm Calm - N/A   Clear
8:35 AM 55.4 °F 48.2 °F 77% 29.86 in 10.0 mi Calm Calm - N/A   Clear
8:55 AM 57.2 °F 48.2 °F 72% 29.86 in 10.0 mi Calm Calm - N/A   Clear
9:15 AM 57.2 °F 48.2 °F 72% 29.86 in 10.0 mi Calm Calm - N/A   Clear
9:35 AM 60.8 °F 50.0 °F 68% 29.87 in 10.0 mi Calm Calm - N/A   Clear
9:55 AM 62.6 °F 51.8 °F 68% 29.87 in 10.0 mi Calm Calm - N/A   Clear
10:15 AM 64.4 °F 51.8 °F 64% 29.87 in 10.0 mi Calm Calm - N/A   Clear
10:35 AM 66.2 °F 51.8 °F 60% 29.87 in 10.0 mi South 3.5 mph - N/A   Clear
10:55 AM 69.8 °F 51.8 °F 53% 29.87 in 10.0 mi Calm Calm - N/A   Clear
11:15 AM 69.8 °F 51.8 °F 53% 29.87 in 10.0 mi Calm Calm - N/A   Clear
11:35 AM 71.6 °F 51.8 °F 50% 29.87 in 10.0 mi Calm Calm - N/A   Clear
11:55 AM 73.4 °F 51.8 °F 47% 29.86 in 10.0 mi SSW 3.5 mph - N/A   Clear
12:15 PM 73.4 °F 51.8 °F 47% 29.86 in 10.0 mi Calm Calm - N/A   Clear
12:35 PM 75.2 °F 51.8 °F 44% 29.85 in 10.0 mi Calm Calm - N/A   Clear
12:55 PM 75.2 °F 53.6 °F 47% 29.84 in 10.0 mi Calm Calm - N/A   Clear
1:15 PM 77.0 °F 53.6 °F 44% 29.84 in 10.0 mi WSW 4.6 mph - N/A   Clear
2:15 PM 78.8 °F 53.6 °F 42% 29.82 in 10.0 mi WSW 4.6 mph - N/A   Clear
2:35 PM 78.8 °F 53.6 °F 42% 29.81 in 10.0 mi Calm Calm - N/A   Clear
2:55 PM 78.8 °F 53.6 °F 42% 29.81 in 10.0 mi SW 3.5 mph - N/A   Clear
3:15 PM 78.8 °F 53.6 °F 42% 29.80 in 10.0 mi Calm Calm - N/A   Clear
3:35 PM 78.8 °F 53.6 °F 42% 29.80 in 10.0 mi Calm Calm - N/A   Clear
3:55 PM 80.6 °F 51.8 °F 37% 29.80 in 10.0 mi Calm Calm - N/A   Clear
4:15 PM 80.6 °F 51.8 °F 37% 29.80 in 10.0 mi Calm Calm - N/A   Clear
4:35 PM 80.6 °F 51.8 °F 37% 29.80 in 10.0 mi West 4.6 mph - N/A   Clear
4:55 PM 80.6 °F 51.8 °F 37% 29.81 in 10.0 mi SW 3.5 mph - N/A   Clear
5:15 PM 80.6 °F 51.8 °F 37% 29.81 in 10.0 mi Calm Calm - N/A   Clear
5:35 PM 80.6 °F 50.0 °F 34% 29.81 in 10.0 mi Calm Calm - N/A   Clear
5:55 PM 78.8 °F 48.2 °F 34% 29.82 in 10.0 mi Calm Calm - N/A   Clear
6:15 PM 77.0 °F 50.0 °F 39% 29.83 in 7.0 mi ENE 3.5 mph - N/A   Clear
6:35 PM 73.4 °F 51.8 °F 47% 29.83 in 10.0 mi East 4.6 mph - N/A   Clear
6:55 PM 69.8 °F 51.8 °F 53% 29.83 in 5.0 mi East 5.8 mph - N/A   Haze
7:15 PM 66.2 °F 51.8 °F 60% 29.83 in 10.0 mi SE 3.5 mph - N/A   Clear
7:55 PM 64.4 °F 51.8 °F 64% 29.84 in 7.0 mi Calm Calm - N/A   Clear
8:15 PM 62.6 °F 50.0 °F 63% 29.84 in 7.0 mi Calm Calm - N/A   Clear
8:35 PM 62.6 °F 50.0 °F 63% 29.84 in 7.0 mi Calm Calm - N/A   Clear
8:55 PM 62.6 °F 51.8 °F 68% 29.84 in 10.0 mi Calm Calm - N/A   Clear
9:15 PM 60.8 °F 51.8 °F 72% 29.84 in 10.0 mi Calm Calm - N/A   Clear
9:35 PM 59.0 °F 51.8 °F 77% 29.84 in 10.0 mi Calm Calm - N/A   Clear
9:55 PM 59.0 °F 53.6 °F 82% 29.86 in 10.0 mi Calm Calm - N/A   Clear
10:15 PM 57.2 °F 50.0 °F 77% 29.86 in 10.0 mi ESE 3.5 mph - N/A   Clear
10:55 PM 55.4 °F 48.2 °F 77% 29.88 in 10.0 mi Calm Calm - N/A   Clear
11:35 PM 57.2 °F 50.0 °F 77% 29.88 in 10.0 mi Calm Calm - N/A   Clear